When you browse on this site, cookies collect data to enhance your experience and personalize the content and advertising you see.
Visit our Privacy Policy to learn more. By continuing to use the site, you agree to this use of cookies and data.
  • In Hungary
  • List of Countries
  • For 7 days
  • Water Temperature
  • Weather Map
  • News
  • Weather Widgets
  • user-avatar
    Login

    Hourly Weather Melihovo

    Today, 17 August, Saturday

    Time Temperature Precipitation Wind Pressure Humidity
    00:00 +13°C° 0 mm 3 mps 741 mmHg 87%
    01:00 +13°C° 0 mm 4 mps 741 mmHg 87%
    02:00 +13°C° 0 mm 4 mps 741 mmHg 83%
    03:00 +13°C° 0.2 mm 4 mps 741 mmHg 85%
    04:00 +13°C° 0.2 mm 4 mps 741 mmHg 87%
    05:00 +13°C° 0.2 mm 4 mps 741 mmHg 89%
    06:00 +13°C° 0.1 mm 4 mps 741 mmHg 88%
    07:00 +13°C° 0.1 mm 4 mps 741 mmHg 87%
    08:00 +14°C° 0.1 mm 4 mps 741 mmHg 86%
    09:00 +14°C° 0.1 mm 4 mps 741 mmHg 86%
    10:00 +14°C° 0.1 mm 4 mps 741 mmHg 86%
    11:00 +15°C° 0.1 mm 4 mps 740 mmHg 86%
    12:00 +15°C° 0.3 mm 4 mps 740 mmHg 87%
    13:00 +16°C° 0.3 mm 3 mps 740 mmHg 89%
    14:00 +16°C° 0.3 mm 3 mps 740 mmHg 90%
    15:00 +16°C° 0.3 mm 3 mps 740 mmHg 91%
    16:00 +16°C° 0.3 mm 3 mps 739 mmHg 92%
    17:00 +15°C° 0.3 mm 4 mps 739 mmHg 93%
    18:00 +15°C° 0.4 mm 4 mps 739 mmHg 94%
    19:00 +15°C° 0.4 mm 4 mps 738 mmHg 94%
    20:00 +15°C° 0.4 mm 4 mps 738 mmHg 95%
    21:00 +15°C° 0.6 mm 4 mps 738 mmHg 95%
    22:00 +15°C° 0.6 mm 4 mps 737 mmHg 96%
    23:00 +14°C° 0.6 mm 3 mps 737 mmHg 96%

    Tomorrow, 18 August, Sunday

    Time Temperature Precipitation Wind Pressure Humidity
    00:00 +14°C° 0.8 mm 4 mps 737 mmHg 97%
    01:00 +14°C° 0.8 mm 4 mps 737 mmHg 97%
    02:00 +14°C° 0.8 mm 4 mps 737 mmHg 98%
    03:00 +14°C° 2.2 mm 4 mps 737 mmHg 98%
    04:00 +14°C° 2.2 mm 4 mps 737 mmHg 98%
    05:00 +14°C° 2.2 mm 4 mps 737 mmHg 98%
    06:00 +14°C° 1.3 mm 4 mps 737 mmHg 98%
    07:00 +13°C° 1.3 mm 4 mps 737 mmHg 97%
    08:00 +13°C° 1.3 mm 3 mps 737 mmHg 97%
    09:00 +13°C° 0.7 mm 3 mps 737 mmHg 97%
    10:00 +13°C° 0.7 mm 3 mps 738 mmHg 97%
    11:00 +13°C° 0.7 mm 3 mps 738 mmHg 97%
    12:00 +14°C° 0.1 mm 3 mps 738 mmHg 94%
    13:00 +16°C° 0.1 mm 2 mps 739 mmHg 92%
    14:00 +17°C° 0.1 mm 2 mps 739 mmHg 89%
    15:00 +18°C° 0 mm 2 mps 740 mmHg 87%
    16:00 +18°C° 0 mm 2 mps 740 mmHg 85%
    17:00 +18°C° 0 mm 2 mps 740 mmHg 83%
    18:00 +18°C° 0 mm 1 mps 741 mmHg 86%
    19:00 +16°C° 0 mm 1 mps 741 mmHg 90%
    20:00 +14°C° 0 mm 1 mps 741 mmHg 93%
    21:00 +14°C° 0 mm 1 mps 742 mmHg 93%
    22:00 +14°C° 0 mm 1 mps 742 mmHg 93%
    23:00 +13°C° 0 mm 1 mps 742 mmHg 94%

    Day after tomorrow, 19 August, Monday

    Time Temperature Precipitation Wind Pressure Humidity
    00:00 +13°C° 0 mm 1 mps 742 mmHg 94%
    01:00 +13°C° 0 mm 1 mps 743 mmHg 95%
    02:00 +13°C° 0 mm 1 mps 743 mmHg 95%
    03:00 +13°C° 0 mm 1 mps 743 mmHg 95%
    04:00 +12°C° 0 mm 1 mps 743 mmHg 94%
    05:00 +12°C° 0 mm 1 mps 744 mmHg 94%
    06:00 +14°C° 0 mm 1 mps 744 mmHg 89%
    07:00 +16°C° 0 mm 2 mps 744 mmHg 84%
    08:00 +18°C° 0 mm 2 mps 745 mmHg 79%
    09:00 +20°C° 0 mm 2 mps 745 mmHg 73%
    10:00 +21°C° 0 mm 2 mps 745 mmHg 66%
    11:00 +24°C° 0 mm 3 mps 745 mmHg 60%
    12:00 +24°C° 0 mm 3 mps 745 mmHg 59%
    13:00 +25°C° 0 mm 3 mps 745 mmHg 59%
    14:00 +25°C° 0 mm 3 mps 746 mmHg 59%
    15:00 +25°C° 0 mm 2 mps 746 mmHg 63%
    16:00 +25°C° 0 mm 2 mps 746 mmHg 67%
    17:00 +24°C° 0 mm 2 mps 746 mmHg 71%
    18:00 +23°C° 0 mm 2 mps 746 mmHg 77%
    19:00 +20°C° 0 mm 2 mps 746 mmHg 83%
    20:00 +18°C° 0 mm 2 mps 746 mmHg 90%
    21:00 +17°C° 0 mm 2 mps 746 mmHg 90%
    22:00 +17°C° 0 mm 2 mps 746 mmHg 91%
    23:00 +16°C° 0 mm 2 mps 746 mmHg 92%

    20 August, Tuesday

    Time Temperature Precipitation Wind Pressure Humidity
    00:00 +16°C° 0 mm 2 mps 746 mmHg 92%
    01:00 +16°C° 0 mm 2 mps 747 mmHg 92%
    02:00 +16°C° 0 mm 2 mps 747 mmHg 92%
    03:00 +16°C° 0 mm 2 mps 747 mmHg 92%
    04:00 +16°C° 0 mm 2 mps 747 mmHg 91%
    05:00 +16°C° 0 mm 2 mps 747 mmHg 90%
    06:00 +17°C° 0 mm 2 mps 747 mmHg 85%
    07:00 +19°C° 0 mm 2 mps 747 mmHg 79%
    08:00 +20°C° 0 mm 2 mps 747 mmHg 74%
    09:00 +23°C° 0 mm 2 mps 747 mmHg 69%
    10:00 +24°C° 0 mm 3 mps 747 mmHg 64%
    11:00 +26°C° 0 mm 3 mps 747 mmHg 59%
    12:00 +27°C° 0 mm 3 mps 747 mmHg 59%
    13:00 +27°C° 0 mm 3 mps 747 mmHg 58%
    14:00 +28°C° 0 mm 3 mps 747 mmHg 57%
    15:00 +27°C° 0 mm 2 mps 747 mmHg 62%
    16:00 +27°C° 0 mm 2 mps 747 mmHg 66%
    17:00 +26°C° 0 mm 2 mps 747 mmHg 70%
    18:00 +25°C° 0 mm 2 mps 747 mmHg 76%
    19:00 +23°C° 0 mm 2 mps 747 mmHg 81%
    20:00 +20°C° 0 mm 2 mps 747 mmHg 86%
    21:00 +20°C° 0 mm 2 mps 747 mmHg 87%
    22:00 +19°C° 0 mm 2 mps 747 mmHg 89%
    23:00 +19°C° 0 mm 2 mps 747 mmHg 90%

    21 August, Wednesday

    Time Temperature Precipitation Wind Pressure Humidity
    00:00 +18°C° 0 mm 2 mps 747 mmHg 91%
    01:00 +18°C° 0 mm 2 mps 747 mmHg 92%
    02:00 +19°C° 0 mm 1 mps 747 mmHg 93%
    03:00 +19°C° 0 mm 1 mps 747 mmHg 93%
    04:00 +19°C° 0 mm 1 mps 747 mmHg 94%
    05:00 +18°C° 0 mm 1 mps 747 mmHg 94%
    06:00 +20°C° 0 mm 1 mps 747 mmHg 88%
    07:00 +22°C° 0 mm 1 mps 747 mmHg 82%
    08:00 +24°C° 0 mm 1 mps 748 mmHg 76%
    09:00 +25°C° 0 mm 1 mps 748 mmHg 72%
    10:00 +26°C° 0 mm 1 mps 747 mmHg 67%
    11:00 +28°C° 0 mm 1 mps 747 mmHg 62%
    12:00 +28°C° 0 mm 2 mps 747 mmHg 60%
    13:00 +29°C° 0 mm 2 mps 747 mmHg 59%
    14:00 +29°C° 0 mm 2 mps 746 mmHg 58%
    15:00 +28°C° 0 mm 2 mps 746 mmHg 62%
    16:00 +28°C° 0 mm 2 mps 746 mmHg 66%
    17:00 +27°C° 0 mm 2 mps 746 mmHg 71%
    18:00 +25°C° 0 mm 2 mps 745 mmHg 76%
    19:00 +23°C° 0 mm 2 mps 745 mmHg 81%
    20:00 +20°C° 0 mm 2 mps 745 mmHg 87%
    21:00 +19°C° 0 mm 2 mps 745 mmHg 88%
    22:00 +19°C° 0 mm 2 mps 745 mmHg 89%
    23:00 +18°C° 0 mm 2 mps 744 mmHg 91%

    22 August, Thursday

    Time Temperature Precipitation Wind Pressure Humidity
    00:00 +18°C° 0 mm 2 mps 744 mmHg 92%
    01:00 +17°C° 0 mm 2 mps 744 mmHg 93%
    02:00 +17°C° 0 mm 2 mps 743 mmHg 94%
    03:00 +17°C° 0 mm 2 mps 743 mmHg 94%
    04:00 +17°C° 0 mm 2 mps 743 mmHg 95%
    05:00 +17°C° 0 mm 2 mps 743 mmHg 95%
    06:00 +18°C° 0 mm 2 mps 743 mmHg 90%
    07:00 +19°C° 0 mm 3 mps 744 mmHg 86%
    08:00 +21°C° 0 mm 3 mps 744 mmHg 81%
    09:00 +20°C° 0 mm 4 mps 745 mmHg 80%
    10:00 +19°C° 0 mm 4 mps 745 mmHg 79%
    11:00 +19°C° 0 mm 5 mps 746 mmHg 78%
    12:00 +19°C° 0 mm 5 mps 746 mmHg 75%
    13:00 +20°C° 0 mm 5 mps 746 mmHg 71%
    14:00 +21°C° 0 mm 5 mps 747 mmHg 68%
    15:00 +20°C° 0 mm 4 mps 747 mmHg 69%
    16:00 +20°C° 0 mm 4 mps 747 mmHg 71%
    17:00 +19°C° 0 mm 3 mps 747 mmHg 72%
    18:00 +18°C° 0 mm 3 mps 747 mmHg 77%
    19:00 +16°C° 0 mm 2 mps 748 mmHg 83%
    20:00 +15°C° 0 mm 2 mps 748 mmHg 88%
    21:00 +14°C° 0 mm 1 mps 748 mmHg 89%
    22:00 +14°C° 0 mm 1 mps 749 mmHg 89%
    23:00 +13°C° 0 mm 1 mps 749 mmHg 90%
    Show more